PVG2025 LEZL-LEVX

Flight info

Callsign PVG2025
Flight time 0h 58m
Altitude 34000
Route SANTA M744 LASIB DCT PINEK UP600 TURON
Aircraft A321/M-SDE3FGHIRWY/LB1

Departure

Time 2026-04-29 19:41
Airport Seville Airport (LEZL)

Arrival

Time 2026-04-29 20:40
Airport Vigo Airport (LEVX)
Time Latitude Longitude Altitude Speed Heading
2026-04-29 19:17 37.42123 -5.89806 94 ft 0 kts 315°
2026-04-29 19:34 37.42132 -5.89817 95 ft 4 kts 315°
2026-04-29 19:34 37.42149 -5.89878 94 ft 11 kts 261°
2026-04-29 19:34 37.42093 -5.89971 95 ft 17 kts 224°
2026-04-29 19:35 37.42045 -5.90084 95 ft 13 kts 238°
2026-04-29 19:35 37.41987 -5.90104 98 ft 2 kts 165°
2026-04-29 19:35 37.41979 -5.90070 97 ft 8 kts 93°
2026-04-29 19:35 37.41980 -5.90010 96 ft 13 kts 89°
2026-04-29 19:36 37.41980 -5.89963 96 ft 4 kts 89°
2026-04-29 19:36 37.41980 -5.89922 96 ft 6 kts 89°
2026-04-29 19:36 37.41981 -5.89892 96 ft 0 kts 90°
2026-04-29 19:37 37.41981 -5.89884 96 ft 4 kts 90°
2026-04-29 19:37 37.41981 -5.89841 104 ft 11 kts 89°
2026-04-29 19:37 37.41981 -5.89655 97 ft 18 kts 90°
2026-04-29 19:37 37.41981 -5.89475 98 ft 23 kts 89°
2026-04-29 19:38 37.41982 -5.89268 100 ft 24 kts 90°
2026-04-29 19:38 37.41983 -5.89050 101 ft 25 kts 89°
2026-04-29 19:38 37.41984 -5.88825 103 ft 26 kts 90°
2026-04-29 19:38 37.41985 -5.88634 104 ft 15 kts 90°
2026-04-29 19:39 37.41985 -5.88474 105 ft 20 kts 90°
2026-04-29 19:39 37.41986 -5.88263 106 ft 27 kts 89°
2026-04-29 19:39 37.41986 -5.88019 107 ft 28 kts 90°
2026-04-29 19:39 37.41987 -5.87767 108 ft 29 kts 90°
2026-04-29 19:40 37.41976 -5.87518 110 ft 23 kts 112°
2026-04-29 19:40 37.41871 -5.87434 116 ft 16 kts 188°
2026-04-29 19:40 37.41799 -5.87509 117 ft 13 kts 263°
2026-04-29 19:40 37.41800 -5.87563 116 ft 1 kts 270°
2026-04-29 19:41 37.41799 -5.87715 113 ft 54 kts 269°
2026-04-29 19:41 37.41794 -5.88547 107 ft 132 kts 271°
2026-04-29 19:41 37.41799 -5.89839 639 ft 148 kts 268°
2026-04-29 19:41 37.41804 -5.91120 1448 ft 152 kts 266°
2026-04-29 19:42 37.41934 -5.92538 1828 ft 181 kts 291°
2026-04-29 19:42 37.42460 -5.93447 2091 ft 200 kts 308°
2026-04-29 19:42 37.43915 -5.95184 2594 ft 235 kts 315°
2026-04-29 19:42 37.45204 -5.96606 3177 ft 254 kts 316°
2026-04-29 19:43 37.46554 -5.98092 4003 ft 260 kts 315°
2026-04-29 19:43 37.47921 -5.99620 4891 ft 266 kts 313°
2026-04-29 19:43 37.49306 -6.01196 5762 ft 271 kts 313°
2026-04-29 19:43 37.50707 -6.02815 6635 ft 275 kts 313°
2026-04-29 19:44 37.52119 -6.04465 7467 ft 279 kts 312°
2026-04-29 19:44 37.53529 -6.06166 8313 ft 281 kts 307°
2026-04-29 19:44 37.54594 -6.08199 9140 ft 279 kts 294°
2026-04-29 19:44 37.55552 -6.10338 10031 ft 281 kts 294°
2026-04-29 19:45 37.56530 -6.12549 10469 ft 300 kts 294°
2026-04-29 19:45 37.57579 -6.14942 10693 ft 323 kts 294°
2026-04-29 19:45 37.58722 -6.17455 11162 ft 335 kts 295°
2026-04-29 19:45 37.59928 -6.20001 11867 ft 340 kts 296°
2026-04-29 19:46 37.61160 -6.22557 12624 ft 342 kts 296°
2026-04-29 19:46 37.62402 -6.25132 13388 ft 345 kts 296°
2026-04-29 19:46 37.63646 -6.27730 14114 ft 347 kts 295°
2026-04-29 19:46 37.64892 -6.30347 14792 ft 349 kts 295°
2026-04-29 19:47 37.66142 -6.32984 15474 ft 351 kts 295°
2026-04-29 19:47 37.67379 -6.35607 16161 ft 353 kts 295°
2026-04-29 19:47 37.68656 -6.38315 16859 ft 355 kts 295°
2026-04-29 19:47 37.69923 -6.41003 17532 ft 358 kts 295°
2026-04-29 19:48 37.71201 -6.43713 18210 ft 360 kts 295°
2026-04-29 19:48 37.72050 -6.45517 18580 ft 362 kts 295°
2026-04-29 19:48 37.73776 -6.49185 19325 ft 364 kts 295°
2026-04-29 19:48 37.75058 -6.51910 19875 ft 366 kts 295°
2026-04-29 19:49 37.76362 -6.54687 20422 ft 368 kts 295°
2026-04-29 19:49 37.77672 -6.57483 20966 ft 371 kts 295°
2026-04-29 19:49 37.78989 -6.60294 21482 ft 373 kts 295°
2026-04-29 19:49 37.80315 -6.63130 22014 ft 375 kts 295°
2026-04-29 19:50 37.81646 -6.65981 22531 ft 377 kts 295°
2026-04-29 19:50 37.82983 -6.68848 23065 ft 379 kts 295°
2026-04-29 19:50 37.84327 -6.71732 23580 ft 381 kts 295°
2026-04-29 19:50 37.85676 -6.74624 24017 ft 383 kts 295°
2026-04-29 19:51 37.87035 -6.77538 24441 ft 385 kts 295°
2026-04-29 19:51 37.88402 -6.80467 24859 ft 388 kts 295°
2026-04-29 19:51 37.89775 -6.83416 25265 ft 390 kts 295°
2026-04-29 19:51 37.91154 -6.86385 25669 ft 393 kts 295°
2026-04-29 19:52 37.92544 -6.89377 26079 ft 395 kts 295°
2026-04-29 19:52 37.93946 -6.92382 26484 ft 398 kts 296°
2026-04-29 19:52 37.95710 -6.95138 26859 ft 412 kts 311°
2026-04-29 19:52 37.98152 -6.97167 27220 ft 432 kts 329°
2026-04-29 19:53 38.01109 -6.98192 27591 ft 448 kts 342°
2026-04-29 19:53 38.04187 -6.98890 27957 ft 450 kts 341°
2026-04-29 19:53 38.07192 -6.99893 28315 ft 447 kts 335°
2026-04-29 19:53 38.10176 -7.01042 28690 ft 449 kts 335°
2026-04-29 19:54 38.16161 -7.03418 29371 ft 453 kts 334°
2026-04-29 19:54 38.19129 -7.04622 29687 ft 455 kts 334°
2026-04-29 19:54 38.22157 -7.05853 29989 ft 457 kts 334°
2026-04-29 19:55 38.25192 -7.07084 30248 ft 459 kts 334°
2026-04-29 19:55 38.28245 -7.08313 30574 ft 458 kts 334°
2026-04-29 19:55 38.31284 -7.09531 30955 ft 456 kts 334°
2026-04-29 19:55 38.34315 -7.10744 31335 ft 455 kts 334°
2026-04-29 19:56 38.37324 -7.11949 31726 ft 453 kts 334°
2026-04-29 19:56 38.40324 -7.13152 32113 ft 451 kts 334°
2026-04-29 19:56 38.43316 -7.14352 32488 ft 449 kts 334°
2026-04-29 19:56 38.46256 -7.15535 32943 ft 446 kts 333°
2026-04-29 19:57 38.49210 -7.16728 33384 ft 443 kts 333°
2026-04-29 19:57 38.51196 -7.17533 33671 ft 441 kts 333°
2026-04-29 19:57 38.55069 -7.19107 33929 ft 438 kts 333°
2026-04-29 19:57 38.57951 -7.20273 33958 ft 431 kts 333°
2026-04-29 19:58 38.63652 -7.22584 33953 ft 427 kts 333°
2026-04-29 19:58 38.69267 -7.24879 33954 ft 425 kts 333°
2026-04-29 19:59 38.74910 -7.27183 33948 ft 425 kts 333°
2026-04-29 19:59 38.80559 -7.29491 33954 ft 425 kts 333°
2026-04-29 20:00 38.86196 -7.31797 33957 ft 426 kts 333°
2026-04-29 20:00 38.91842 -7.34100 33974 ft 426 kts 333°
2026-04-29 20:01 38.97483 -7.36401 33962 ft 425 kts 333°
2026-04-29 20:01 39.03119 -7.38719 33958 ft 425 kts 333°
2026-04-29 20:02 39.08764 -7.41051 33960 ft 426 kts 333°
2026-04-29 20:02 39.13454 -7.42990 33982 ft 426 kts 333°
2026-04-29 20:03 39.20034 -7.45706 33962 ft 427 kts 334°
2026-04-29 20:03 39.25705 -7.48035 33955 ft 428 kts 334°
2026-04-29 20:04 39.31383 -7.50375 33962 ft 428 kts 334°
2026-04-29 20:04 39.37055 -7.52732 33980 ft 429 kts 335°
2026-04-29 20:05 39.42749 -7.55099 33960 ft 430 kts 335°
2026-04-29 20:05 39.48453 -7.57478 33952 ft 431 kts 335°
2026-04-29 20:06 39.54169 -7.59862 33956 ft 431 kts 335°
2026-04-29 20:06 39.59892 -7.62253 33967 ft 432 kts 336°
2026-04-29 20:07 39.65615 -7.64643 33952 ft 433 kts 336°
2026-04-29 20:07 39.71316 -7.67028 33952 ft 433 kts 336°
2026-04-29 20:08 39.76134 -7.69049 33954 ft 434 kts 336°
2026-04-29 20:08 39.82811 -7.71857 33975 ft 434 kts 336°
2026-04-29 20:09 39.88557 -7.74280 33975 ft 434 kts 336°
2026-04-29 20:09 39.94298 -7.76701 33974 ft 433 kts 336°
2026-04-29 20:10 40.00033 -7.79129 34000 ft 433 kts 337°
2026-04-29 20:10 40.05768 -7.81553 33984 ft 433 kts 337°
2026-04-29 20:11 40.11499 -7.83984 33974 ft 433 kts 337°
2026-04-29 20:11 40.17193 -7.86418 33971 ft 433 kts 336°
2026-04-29 20:12 40.22933 -7.88863 33981 ft 434 kts 337°
2026-04-29 20:12 40.28677 -7.91302 33976 ft 434 kts 337°
2026-04-29 20:13 40.33454 -7.93347 33972 ft 435 kts 337°
2026-04-29 20:13 40.40175 -7.96233 33967 ft 435 kts 337°
2026-04-29 20:14 40.45930 -7.98699 33972 ft 435 kts 337°
2026-04-29 20:14 40.51676 -8.01162 33965 ft 435 kts 337°
2026-04-29 20:15 40.57433 -8.03633 33962 ft 435 kts 337°
2026-04-29 20:15 40.63181 -8.06114 33988 ft 435 kts 337°
2026-04-29 20:16 40.68925 -8.08595 33977 ft 435 kts 338°
2026-04-29 20:16 40.74640 -8.11069 33970 ft 435 kts 338°
2026-04-29 20:17 40.80410 -8.13514 33960 ft 436 kts 340°
2026-04-29 20:17 40.86305 -8.15546 33967 ft 438 kts 343°
2026-04-29 20:18 40.92239 -8.17384 33965 ft 438 kts 343°
2026-04-29 20:18 40.98157 -8.19281 33654 ft 436 kts 343°
2026-04-29 20:19 41.01092 -8.20260 33387 ft 435 kts 342°
2026-04-29 20:19 41.04027 -8.21253 33115 ft 435 kts 343°
2026-04-29 20:19 41.06964 -8.22249 32867 ft 436 kts 343°
2026-04-29 20:19 41.09907 -8.23245 32595 ft 437 kts 343°
2026-04-29 20:20 41.12855 -8.24244 32324 ft 437 kts 343°
2026-04-29 20:20 41.15807 -8.25245 32065 ft 438 kts 343°
2026-04-29 20:20 41.18762 -8.26244 31808 ft 439 kts 344°
2026-04-29 20:20 41.21723 -8.27239 31554 ft 439 kts 344°
2026-04-29 20:21 41.24679 -8.28230 31179 ft 436 kts 344°
2026-04-29 20:21 41.27607 -8.29214 30604 ft 432 kts 344°
2026-04-29 20:21 41.30470 -8.30178 30018 ft 429 kts 344°
2026-04-29 20:21 41.33347 -8.31148 29347 ft 424 kts 344°
2026-04-29 20:22 41.36193 -8.32111 28747 ft 419 kts 344°
2026-04-29 20:22 41.38995 -8.33063 28138 ft 414 kts 344°
2026-04-29 20:22 41.41775 -8.34012 27536 ft 410 kts 344°
2026-04-29 20:22 41.44526 -8.34953 26924 ft 407 kts 344°
2026-04-29 20:23 41.47256 -8.35883 26340 ft 404 kts 344°
2026-04-29 20:23 41.49967 -8.36806 25742 ft 400 kts 344°
2026-04-29 20:23 41.52658 -8.37725 25162 ft 397 kts 344°
2026-04-29 20:23 41.55319 -8.38633 24585 ft 393 kts 344°
2026-04-29 20:24 41.57071 -8.39230 24203 ft 391 kts 344°
2026-04-29 20:24 41.59695 -8.40125 23632 ft 387 kts 344°
2026-04-29 20:24 41.62300 -8.41013 22998 ft 384 kts 344°
2026-04-29 20:24 41.64871 -8.41890 22450 ft 379 kts 344°
2026-04-29 20:25 41.67409 -8.42759 21912 ft 374 kts 344°
2026-04-29 20:25 41.69922 -8.43619 21395 ft 371 kts 344°
2026-04-29 20:25 41.72421 -8.44474 20892 ft 369 kts 344°
2026-04-29 20:25 41.74863 -8.45474 20451 ft 365 kts 335°
2026-04-29 20:26 41.77139 -8.46881 19998 ft 364 kts 334°
2026-04-29 20:26 41.79425 -8.48308 19529 ft 361 kts 334°
2026-04-29 20:26 41.81692 -8.49727 19061 ft 359 kts 334°
2026-04-29 20:26 41.83947 -8.51143 18590 ft 356 kts 334°
2026-04-29 20:27 41.86180 -8.52547 18073 ft 354 kts 334°
2026-04-29 20:27 41.87687 -8.53485 17710 ft 352 kts 335°
2026-04-29 20:27 41.90630 -8.55286 17022 ft 350 kts 335°
2026-04-29 20:27 41.92850 -8.56626 16521 ft 349 kts 335°
2026-04-29 20:28 41.95060 -8.57956 15984 ft 347 kts 335°
2026-04-29 20:28 41.97259 -8.59284 15462 ft 345 kts 335°
2026-04-29 20:28 41.99436 -8.60605 14909 ft 343 kts 335°
2026-04-29 20:28 42.01603 -8.61927 14387 ft 340 kts 334°
2026-04-29 20:29 42.03727 -8.63224 13864 ft 338 kts 334°
2026-04-29 20:29 42.05868 -8.64530 13284 ft 337 kts 334°
2026-04-29 20:29 42.07997 -8.65823 12736 ft 335 kts 335°
2026-04-29 20:29 42.10121 -8.67112 12206 ft 334 kts 334°
2026-04-29 20:30 42.12238 -8.68400 11662 ft 332 kts 334°
2026-04-29 20:30 42.14336 -8.69680 11142 ft 329 kts 334°
2026-04-29 20:30 42.16418 -8.70949 10627 ft 326 kts 334°
2026-04-29 20:30 42.18443 -8.72182 10470 ft 311 kts 334°
2026-04-29 20:31 42.20370 -8.73355 10287 ft 298 kts 334°
2026-04-29 20:31 42.22240 -8.74497 9994 ft 292 kts 334°
2026-04-29 20:31 42.24060 -8.75604 9857 ft 291 kts 336°
2026-04-29 20:31 42.26008 -8.76339 9733 ft 292 kts 351°
2026-04-29 20:32 42.28045 -8.76381 9602 ft 294 kts
2026-04-29 20:32 42.30042 -8.75757 9425 ft 296 kts 16°
2026-04-29 20:32 42.32038 -8.74956 8871 ft 299 kts 15°
2026-04-29 20:32 42.34017 -8.74168 8478 ft 295 kts 15°
2026-04-29 20:33 42.35979 -8.73388 7913 ft 292 kts 15°
2026-04-29 20:33 42.37927 -8.72613 7265 ft 291 kts 15°
2026-04-29 20:33 42.39857 -8.71842 6498 ft 287 kts 15°
2026-04-29 20:33 42.41765 -8.71058 5603 ft 286 kts 19°
2026-04-29 20:34 42.43383 -8.69603 5005 ft 273 kts 51°
2026-04-29 20:34 42.44257 -8.67513 4942 ft 241 kts 76°
2026-04-29 20:34 42.44424 -8.65377 4908 ft 219 kts 99°
2026-04-29 20:34 42.44033 -8.63475 4833 ft 206 kts 116°
2026-04-29 20:35 42.43493 -8.61688 4725 ft 205 kts 116°
2026-04-29 20:35 42.42824 -8.60003 4461 ft 201 kts 133°
2026-04-29 20:35 42.41781 -8.58809 4252 ft 195 kts 154°
2026-04-29 20:35 42.40512 -8.58227 4055 ft 192 kts 175°
2026-04-29 20:36 42.39201 -8.58306 3833 ft 187 kts 193°
2026-04-29 20:36 42.37941 -8.58653 3600 ft 185 kts 193°
2026-04-29 20:36 42.36691 -8.58995 3361 ft 178 kts 193°
2026-04-29 20:36 42.35556 -8.59304 3161 ft 155 kts 193°
2026-04-29 20:37 42.34555 -8.59577 2957 ft 139 kts 193°
2026-04-29 20:37 42.33632 -8.59829 2779 ft 133 kts 192°
2026-04-29 20:37 42.32734 -8.60074 2594 ft 130 kts 193°
2026-04-29 20:37 42.31846 -8.60317 2415 ft 131 kts 193°
2026-04-29 20:38 42.30962 -8.60558 2232 ft 129 kts 192°
2026-04-29 20:38 42.30068 -8.60802 2047 ft 132 kts 191°
2026-04-29 20:38 42.29164 -8.61049 1863 ft 133 kts 191°
2026-04-29 20:38 42.28269 -8.61289 1687 ft 130 kts 191°
2026-04-29 20:39 42.27398 -8.61521 1464 ft 129 kts 190°
2026-04-29 20:39 42.26527 -8.61774 1315 ft 128 kts 191°
2026-04-29 20:39 42.25650 -8.62010 1161 ft 129 kts 192°
2026-04-29 20:39 42.24768 -8.62256 994 ft 130 kts 193°
2026-04-29 20:40 42.23894 -8.62492 842 ft 122 kts 191°
2026-04-29 20:40 42.23235 -8.62668 845 ft 64 kts 191°
2026-04-29 20:40 42.22940 -8.62762 839 ft 25 kts 200°
2026-04-29 20:40 42.22824 -8.62853 841 ft 10 kts 217°
2026-04-29 20:41 42.22760 -8.62919 832 ft 8 kts 218°
2026-04-29 20:41 42.22717 -8.62967 843 ft 10 kts 219°
2026-04-29 20:41 42.22675 -8.63013 837 ft 1 kts 220°
2026-04-29 20:41 42.22657 -8.63033 839 ft 6 kts 217°
2026-04-29 20:42 42.22619 -8.63049 841 ft 0 kts 192°
2026-04-29 20:43 42.22614 -8.63050 843 ft 2 kts 193°
2026-04-29 20:43 42.22578 -8.63061 841 ft 9 kts 192°
2026-04-29 20:43 42.22497 -8.63083 835 ft 14 kts 190°
2026-04-29 20:44 42.22397 -8.63110 835 ft 14 kts 192°
2026-04-29 20:44 42.22372 -8.63125 833 ft 1 kts 249°
2026-04-29 20:44 42.22378 -8.63176 841 ft 6 kts 281°
2026-04-29 20:44 42.22381 -8.63203 843 ft 0 kts 281°